Regional Weather Roundup
Issued by NWS

Home | Current Version | Previous Version | Text Only | Print | Product List | Glossary Off
Versions: 1 2 3 4 5 6 7 8 9 10 11 12 13 14 15 16 17 18 19 20 21 22 23 24 25 26 27 28 29 30 31 32 33 34 35 36 37 38 39 40 41 42 43 44 45 46 47 48 49 50

000
ASUS43 KMKX 280600
RWRWI

WISCONSIN REGIONAL WEATHER ROUNDUP
NATIONAL WEATHER SERVICE MILWAUKEE/SULLIVAN WI
100 AM CDT TUE JUL 28 2015

NOTE: "FAIR" INDICATES FEW OR NO CLOUDS BELOW 12,000 FEET WITH NO
SIGNIFICANT WEATHER AND/OR OBSTRUCTIONS TO VISIBILITY.

WIZ001-002-006>008-014>016-023>028-280700-
NORTHWEST WISCONSIN

CITY           SKY/WX    TMP DP  RH WIND       PRES   REMARKS
SUPERIOR ARPT  PTCLDY    67  66  98 CALM      29.93S
ASHLAND        CLEAR     62  62 100 CALM      29.96F
6HR MIN TEMP:  61; 6HR MAX TEMP:  85;

HAYWARD        CLEAR     73  64  73 S6        29.98S
6HR MIN TEMP:  73; 6HR MAX TEMP:  83;

SIREN          CLEAR     73  67  81 SE6       29.94S
CUMBERLAND     CLEAR     68  64  88 SE3       29.96F
RICE LAKE      CLEAR     72  67  84 SE6       29.98S
CHETEK         CLEAR     72  68  88 E3        29.96F
LADYSMITH      CLEAR     70  64  81 E5        30.01F
EAU CLAIRE     NOT AVBL
MENOMONIE      CLEAR     71  69  93 E3        29.95F
NEW RICHMOND   CLEAR     73  70  89 SE7       29.95R
OSCEOLA        CLEAR     74  73  98 SE6       29.96S
$$

WIZ003>005-009-010-017-018-280700-
NORTH CENTRAL WISCONSIN

CITY           SKY/WX    TMP DP  RH WIND       PRES   REMARKS
MANITOWISH WTR CLEAR     63  63  99 SE5       30.03F
ARBOR VITAE    CLEAR     72  64  77 S5        30.04S
WOODRUFF       CLEAR     72  64  77 S5        30.04S
RHINELANDER    CLEAR     69  61  75 S5        30.05S
6HR MIN TEMP:  66; 6HR MAX TEMP:  83;

EAGLE RIVER    CLEAR     65  59  79 SE3       30.04S
LAND O LAKES   CLEAR     60  59  96 CALM      30.06R
PHILLIPS       CLEAR     68  64  84 SE3       30.02S
6HR MIN TEMP:  68; 6HR MAX TEMP:  82;

TOMAHAWK       CLEAR     63  60  91 CALM      30.04S
MEDFORD        CLEAR     67  63  85 SE3       30.03S
MERRILL        NOT AVBL
$$

WIZ029-030-035-036-043>047-280700-
CENTRAL WISCONSIN

CITY           SKY/WX    TMP DP  RH WIND       PRES   REMARKS
WAUSAU         CLEAR     68  63  84 SE5       30.02R
6HR MIN TEMP:  68; 6HR MAX TEMP:  83;

MOSINEE        CLEAR     64  63  94 SE5       30.04S
MARSHFIELD     CLEAR     70  60  70 S6        30.02S
6HR MIN TEMP:  70; 6HR MAX TEMP:  83;

STEVENS POINT  CLEAR     64  61  92 CALM      30.03S
WAUPACA        CLEAR     67  67  97 CALM      30.02R
WAUTOMA        NOT AVBL
WISC RAPIDS    CLEAR     70  61  73 SE5       30.03R
6HR MIN TEMP:  70; 6HR MAX TEMP:  83;

CAMP DOUGLAS   NOT AVBL
$$

WIZ011>013-019>022-031-037>040-048>050-280700-
NORTHEAST WISCONSIN

CITY           SKY/WX    TMP DP  RH WIND       PRES   REMARKS
ANTIGO         CLEAR     61  60  96 CALM      30.06R
SHAWANO        CLEAR     73  64  73 CALM      30.03S
OCONTO         CLEAR     61  61 100 CALM      30.03R
STURGEON BAY   CLEAR     66  61  82 S5        30.07R
6HR MIN TEMP:  64; 6HR MAX TEMP:  81;

GREEN BAY      CLEAR     63  60  90 CALM      30.03S FOG
6HR MIN TEMP:  62; 6HR MAX TEMP:  83;

MANITOWOC      CLEAR     63  63 100 MISG      30.04S
APPLETON       CLEAR     72  61  68 CALM      30.04R
CLINTONVILLE   CLEAR     64  63  94 CALM      30.03R
OSHKOSH        CLEAR     66  60  81 S3        30.02S
6HR MIN TEMP:  64; 6HR MAX TEMP:  83;

$$

WIZ032>034-041-042-053>061-280700-
SOUTHWEST WISCONSIN

CITY           SKY/WX    TMP DP  RH WIND       PRES   REMARKS
LA CROSSE      CLEAR     73  69  87 E8        29.95F
6HR MIN TEMP:  73; 6HR MAX TEMP:  86;

SPARTA         CLEAR     69  66  90 CALM      29.99S
VIROQUA        CLEAR     70  70 100 E5        30.01R
BOSCOBEL       CLEAR     72  68  87 N3        29.98R
6HR MIN TEMP:  71; 6HR MAX TEMP:  84;

PRAIRIE DU CHI CLEAR     73  69  86 CALM      29.96S
PLATTEVILLE    CLEAR     71  67  87 E7        29.99R
$$

WIZ056-057-062-063-064-067-068-280700-
SOUTH CENTRAL WISCONSIN

CITY           SKY/WX    TMP DP  RH WIND       PRES   REMARKS
REEDSBURG      CLEAR     70  65  85 CALM      30.00S
BARABOO/DELLS  CLEAR     71  61  71 SE6       30.02R
LONE ROCK      NOT AVBL
MINERAL POINT  CLEAR     72  63  73 E5        30.00S
MADISON        CLEAR     69  62  78 CALM      30.01R
6HR MIN TEMP:  69; 6HR MAX TEMP:  82;

MIDDLETON      CLEAR     71  62  73 CALM      30.02R
WATERTOWN      CLEAR     65  65 100 CALM      30.02R
MONROE         CLEAR     70  63  78 E5        30.00S
JANESVILLE     CLEAR     66  64  94 CALM      30.00S
$$

WIZ051-052-058>065-066-070>072-280700-
SOUTHEAST WISCONSIN

CITY           SKY/WX    TMP DP  RH WIND       PRES   REMARKS
MILWAUKEE      PTCLDY    70  64  81 CALM      30.02R
6HR MIN TEMP:  70; 6HR MAX TEMP:  78;

WAUKESHA       CLEAR     63  59  88 CALM      30.03S
MILWAUKEE/TIMM CLEAR     68  61  77 CALM      30.02F
RACINE         CLEAR     70  64  81 CALM      30.03S
6HR MIN TEMP:  70; 6HR MAX TEMP:  78;

BURLINGTON     CLEAR     61  60  97 CALM      30.02S
KENOSHA        PTCLDY    66  64  93 CALM      30.02S
6HR MIN TEMP:  65; 6HR MAX TEMP:  76;

FOND DU LAC    CLEAR     64  60  87 CALM      30.03S
6HR MIN TEMP:  63; 6HR MAX TEMP:  82;

SHEBOYGAN      CLEAR     62  60  93 NW3       30.04R
6HR MIN TEMP:  60; 6HR MAX TEMP:  80;

WEST BEND      CLEAR     61  59  94 CALM      30.03S
JUNEAU           N/A     64  61  90 E3        30.04R
$$

LSZ147-162-280700-
LAKE SUPERIOR

STATION/POSITION TIME  TEMP    WIND        PRES    WAVE
                       AIR SEA DIR/SP/G            HT/PER
                 (UTC) (F)     (DEG/KT/KT) (MB)    (FT/S)
W MID LAKE BUOY  0450   64 62  120/  4/  6 1014.3R   0
DEVILS ISLAND    0500   76     180/  8/  9 1014.1R
PORT WING        0500   76     140/  3/  8 1013.9
SAXON HARBOR     0540   68                 1014.2S
$$

LMZ867-665-643>646-280700-
LAKE MICHIGAN

STATION/POSITION TIME  TEMP    WIND        PRES    WAVE
                       AIR SEA DIR/SP/G            HT/PER
                 (UTC) (F)     (DEG/KT/KT) (MB)    (FT/S)
CHAMBERS ISLAND  0500   67      CALM  /  1 1016.6R
S GREEN BAY BUOY 0330   78 76  180/  8/ 10 1017.6R
N MID LAKE BUOY  0450   70 69  170/  6/  6 1016.3F   0
NORTHPORT PIER   0500   71     170/  4/  6 1016.6R
SISTER BAY       0514   71     170/  7/  9   N/A
ALGOMA LAKESHORE 0542             CALM       N/A
KEWAUNEE LAKESHO 0500   65      CALM  /  3 1016.5R
SHEBOYGAN LAKESH 0500   71     180/  3/  3 1017.0R
PORT WASHINGTON  0500   71      CALM  /  1 1017.3S
ATWATER BUOY     0500   72     130/  4/  6 1017.8F
MILWAUKEE LAKESH 0500   71     310/  1/  1   N/A
KENOSHA   LAKESH 0500   73     100/  3/  4 1015.9F
$$

TC  - TEMPERATURE IN CELSIUS
VSB - VISIBILITY IN STATUTE MILES
WCI - WIND CHILL INDEX
HX  - HEAT INDEX



USA.gov is the U.S. government's official web portal to all federal, state and local government web resources and services.